Location: Janeiro
(34.9957°N, 76.7652°W)
Time: 15:45:41
(UTC+00:00)

IRIDIUM 106 - Pass Details

Date: 14 December 2019
Orbit: 776 x 779 km, 86.4° (Epoch: 18 January)

Event Time Altitude Azimuth Distance (km) Brightness Sun altitude
Rises 23:46:23 0° 183° (S) 3,246 7.8 -21.8°
Reaches altitude 10° 23:48:43 10° 184° (S) 2,322 7.0 -22.3°
Maximum altitude 23:53:55 82° 271° (W) 791 4.3 -23.3°
Drops below altitude 10° 23:59:10 10° 360° (N) 2,336 6.7 -24.4°
Enters shadow 23:59:11 10° 360° (N) 2,341 6.7 -24.4°
